�N����,����,�~����,�C��,���x,�C��,����,���ϕ���,�ő�u�ԕ���,�ő厞����,���˗�,�I�_���x,�n�����x,�ő啗���N��,DTYPE
"20/04/25","00:10",0.0,3.4,96.1,1011.4,309.1,1.3,1.9,313.1,0.00,2.9,10.6,"00:09:32",1
"20/04/25","00:20",0.0,3.6,96.2,1011.2,310.1,2.0,2.6,317.8,0.00,3.1,10.7,"00:18:06",1
"20/04/25","00:30",0.0,3.7,96.2,1011.6,286.4,0.5,1.6,300.9,0.00,3.2,10.6,"00:21:38",1
"20/04/25","00:40",0.0,3.5,96.2,1011.9,316.4,1.6,2.7,314.9,0.00,3.0,10.7,"00:35:38",1
"20/04/25","00:50",0.0,3.4,96.3,1011.9,318.4,1.6,2.7,322.9,0.00,2.9,10.6,"00:47:10",1
"20/04/25","01:00",0.0,3.1,96.5,1011.9,316.6,2.1,2.7,321.6,0.00,2.6,10.6,"00:52:10",1
"20/04/25","01:10",0.0,3.0,96.6,1011.6,309.6,2.0,2.5,313.0,0.00,2.6,10.6,"01:04:20",1
"20/04/25","01:20",0.0,3.0,96.7,1011.9,301.3,2.1,2.5,318.7,0.00,2.6,10.4,"01:14:46",1
"20/04/25","01:30",0.0,2.8,96.8,1011.6,299.9,2.1,2.7,320.2,0.00,2.4,10.4,"01:22:22",1
"20/04/25","01:40",0.0,2.6,96.9,1011.4,297.4,1.8,2.5,315.9,0.00,2.2,10.7,"01:32:36",1
"20/04/25","01:50",0.0,2.6,97.0,1011.4,284.7,1.6,2.1,303.0,0.00,2.2,10.4,"01:45:26",1
"20/04/25","02:00",0.0,2.6,97.1,1011.4,287.4,1.7,2.0,297.5,0.00,2.2,10.4,"01:51:06",1
"20/04/25","02:10",0.0,2.7,97.1,1011.4,286.6,1.7,2.5,319.8,0.00,2.3,10.4,"02:07:50",1
"20/04/25","02:20",0.0,2.4,97.2,1011.4,312.4,2.2,3.2,320.8,0.00,2.0,10.1,"02:13:02",1
"20/04/25","02:30",0.0,2.5,97.3,1011.4,312.3,2.1,2.8,323.9,0.00,2.2,10.2,"02:29:50",1
"20/04/25","02:40",0.0,2.3,97.4,1011.4,322.3,2.5,3.1,317.7,0.00,2.0,10.3,"02:32:18",1
"20/04/25","02:50",0.0,2.3,97.4,1011.4,289.1,1.8,2.5,316.4,0.00,2.0,10.2,"02:41:40",1
"20/04/25","03:00",0.0,2.3,97.4,1011.6,291.8,1.5,1.9,311.8,0.00,2.0,10.2,"02:56:08",1
"20/04/25","03:10",0.0,2.3,97.5,1011.6,298.3,1.5,2.2,316.1,0.00,2.0,10.2,"03:02:24",1
"20/04/25","03:20",0.0,2.1,97.5,1011.4,294.4,1.1,1.9,320.8,0.00,1.8,10.1,"03:19:04",1
"20/04/25","03:30",0.2,2.1,97.6,1011.4,315.1,1.8,2.9,322.2,0.00,1.8,10.1,"03:22:00",1
"20/04/25","03:40",0.0,2.2,97.7,1011.6,283.4,1.2,1.6,314.9,0.00,1.9,10.1,"03:30:08",1
"20/04/25","03:50",0.0,2.2,97.7,1011.6,287.5,1.3,1.8,267.6,0.00,1.9,10.0,"03:41:20",1
"20/04/25","04:00",0.0,1.9,97.8,1011.4,315.6,1.8,2.7,318.6,0.00,1.6,9.8,"03:52:40",1
"20/04/25","04:10",0.0,1.8,97.9,1011.6,316.9,2.0,2.8,323.9,0.00,1.5,9.8,"04:01:04",1
"20/04/25","04:20",0.0,1.8,97.9,1011.4,290.3,0.8,1.7,305.8,0.00,1.5,9.8,"04:11:36",1
"20/04/25","04:30",0.0,1.8,98.0,1011.2,305.0,1.5,2.4,316.3,0.00,1.6,9.7,"04:25:12",1
"20/04/25","04:40",0.0,1.9,97.4,1011.4,290.0,0.7,1.4,313.5,0.00,1.6,9.8,"04:30:24",1
"20/04/25","04:50",0.0,1.7,98.0,1011.6,311.8,1.5,2.4,317.0,0.00,1.5,9.7,"04:45:52",1
"20/04/25","05:00",0.0,1.7,97.5,1011.6,296.6,1.1,2.0,321.6,0.00,1.4,9.9,"04:50:08",1
"20/04/25","05:10",0.0,1.5,98.1,1011.4,318.1,2.0,2.6,317.0,0.00,1.3,9.6,"05:09:44",1
"20/04/25","05:20",0.0,1.6,97.6,1011.6,300.7,1.7,2.7,319.8,0.00,1.3,9.6,"05:10:40",1
"20/04/25","05:30",0.0,1.7,98.2,1011.6,281.4,1.1,1.3,288.4,0.00,1.5,9.7,"05:21:12",1
"20/04/25","05:40",0.0,2.0,97.7,1011.6,292.5,1.2,1.4,310.2,0.00,1.7,9.5,"05:33:28",1
"20/04/25","05:50",0.0,2.2,98.3,1011.6,314.0,1.8,2.4,316.3,0.00,2.0,9.7,"05:41:52",1
"20/04/25","06:00",0.0,2.9,97.7,1011.6,296.6,1.2,1.9,312.1,0.01,2.6,9.6,"05:51:04",1
"20/04/25","06:10",0.0,3.2,98.1,1011.6,260.2,0.5,1.0,299.9,0.01,3.0,9.5,"06:01:44",1
"20/04/25","06:20",0.0,4.1,97.5,1012.3,241.5,0.3,0.9,287.6,0.02,3.8,9.6,"06:10:16",1
"20/04/25","06:30",0.0,4.6,97.9,1012.8,227.3,0.2,0.6,193.2,0.04,4.3,9.4,"06:25:04",1
"20/04/25","06:40",0.0,5.4,97.8,1013.0,331.2,0.5,1.2,319.5,0.06,5.1,9.7,"06:31:28",1
"20/04/25","06:50",0.0,6.1,97.7,1012.8,331.7,0.7,1.3,336.3,0.08,5.8,9.6,"06:47:34",1
"20/04/25","07:00",0.0,6.7,97.4,1012.8,299.3,1.0,1.6,320.0,0.11,6.4,9.7,"06:52:44",1
"20/04/25","07:10",0.0,7.7,97.2,1013.3,294.0,0.6,1.6,341.8,0.13,7.3,9.6,"07:09:14",1
"20/04/25","07:20",0.0,8.4,97.1,1013.5,337.9,1.1,2.4,329.6,0.16,8.0,9.9,"07:16:00",1
"20/04/25","07:30",0.0,8.8,96.0,1014.0,290.1,0.7,1.4,326.0,0.19,8.2,10.1,"07:21:12",1
"20/04/25","07:40",0.0,9.0,96.1,1014.0,253.6,0.5,1.1,247.1,0.22,8.5,10.1,"07:30:08",1
"20/04/25","07:50",0.0,9.0,95.8,1014.0,112.2,0.7,1.8,110.1,0.24,8.4,10.2,"07:48:32",1
"20/04/25","08:00",0.0,9.4,95.1,1014.2,262.4,0.8,1.7,311.2,0.27,8.7,10.3,"07:51:28",1
"20/04/25","08:10",0.0,10.3,94.8,1014.5,322.3,0.5,1.1,353.8,0.29,9.5,10.5,"08:04:42",1
"20/04/25","08:20",0.0,10.4,92.6,1014.2,198.8,1.0,2.6,135.0,0.32,9.3,10.6,"08:18:56",1
"20/04/25","08:30",0.0,10.5,90.6,1014.5,185.3,0.8,2.2,172.6,0.34,9.1,10.8,"08:27:52",1
"20/04/25","08:40",0.0,11.1,85.0,1014.7,166.4,1.1,3.2,200.0,0.37,8.7,11.0,"08:39:04",1
"20/04/25","08:50",0.0,12.1,79.6,1014.7,194.9,1.1,3.6,129.1,0.39,8.7,11.1,"08:49:12",1
"20/04/25","09:00",0.0,12.4,73.8,1015.2,154.6,1.5,3.3,187.1,0.42,7.9,11.0,"08:58:16",1
"20/04/25","09:10",0.0,13.1,70.4,1015.2,185.1,1.2,3.1,148.6,0.44,7.9,11.7,"09:06:56",1
"20/04/25","09:20",0.0,13.3,68.7,1015.2,176.8,1.6,3.7,125.9,0.46,7.7,11.7,"09:16:48",1
"20/04/25","09:30",0.0,13.5,67.0,1014.9,170.3,1.5,3.2,173.5,0.48,7.5,11.7,"09:25:44",1
"20/04/25","09:40",0.0,13.9,67.0,1014.9,127.3,1.2,3.3,110.0,0.49,7.9,12.1,"09:32:08",1
"20/04/25","09:50",0.0,14.4,66.5,1014.5,168.7,1.6,3.2,149.3,0.51,8.3,12.2,"09:46:56",1
"20/04/25","10:00",0.0,14.8,64.1,1014.2,17.5,1.0,1.9,119.0,0.53,8.1,12.5,"09:57:52",1
"20/04/25","10:10",0.0,15.6,63.1,1014.2,265.4,1.2,3.4,202.4,0.54,8.7,12.8,"10:01:04",1
"20/04/25","10:20",0.0,16.4,62.0,1014.0,124.0,1.2,3.5,199.2,0.55,9.1,12.9,"10:16:32",1
"20/04/25","10:30",0.0,16.5,57.1,1013.3,140.6,2.1,4.1,155.1,0.57,8.0,13.3,"10:23:36",1
"20/04/25","10:40",0.0,16.2,53.3,1013.3,175.3,3.6,7.8,148.1,0.58,6.7,13.3,"10:39:52",1
"20/04/25","10:50",0.0,16.6,52.2,1013.3,186.4,3.4,6.0,177.1,0.58,6.8,13.6,"10:40:16",1
"20/04/25","11:00",0.0,17.0,50.5,1013.0,164.3,3.5,5.7,140.9,0.59,6.7,14.0,"10:54:16",1
"20/04/25","11:10",0.0,17.3,46.6,1012.8,166.5,2.6,7.3,144.8,0.61,5.8,13.9,"11:04:32",1
"20/04/25","11:20",0.0,17.5,44.6,1012.8,183.6,3.2,5.6,227.3,0.61,5.4,14.2,"11:11:44",1
"20/04/25","11:30",0.0,17.7,43.9,1012.8,187.4,3.6,5.8,132.3,0.62,5.3,14.5,"11:21:04",1
"20/04/25","11:40",0.0,17.9,40.6,1012.6,229.5,3.4,6.6,223.7,0.62,4.4,14.5,"11:32:40",1
"20/04/25","11:50",0.0,18.2,37.6,1012.6,231.1,3.4,7.0,227.7,0.63,3.6,14.8,"11:48:08",1
"20/04/25","12:00",0.0,18.0,35.7,1012.3,217.6,4.5,10.5,223.2,0.63,2.6,14.9,"11:56:32",1
"20/04/25","12:10",0.0,18.4,32.4,1012.3,224.4,3.7,8.0,226.9,0.63,1.6,15.1,"12:09:12",1
"20/04/25","12:20",0.0,18.9,31.6,1012.3,225.0,3.4,6.7,180.3,0.63,1.7,15.2,"12:11:44",1
"20/04/25","12:30",0.0,19.0,28.7,1012.1,227.9,4.0,8.2,232.9,0.62,0.5,15.3,"12:21:36",1
"20/04/25","12:40",0.0,19.0,28.0,1011.4,200.7,4.2,8.3,189.3,0.62,0.1,15.4,"12:35:20",1
"20/04/25","12:50",0.0,19.2,25.8,1011.6,221.5,3.7,8.3,195.8,0.62,-0.8,15.5,"12:40:40",1
"20/04/25","13:00",0.0,19.1,25.3,1011.9,232.1,4.1,8.0,221.7,0.61,-1.2,15.6,"12:59:36",1
"20/04/25","13:10",0.0,19.1,25.3,1011.6,229.5,4.0,9.4,214.6,0.60,-1.2,15.6,"13:05:20",1
"20/04/25","13:20",0.0,19.2,25.1,1011.4,209.1,4.7,8.7,230.2,0.59,-1.2,15.7,"13:14:08",1
"20/04/25","13:30",0.0,19.2,26.1,1011.2,208.1,4.6,8.3,222.3,0.58,-0.7,15.8,"13:23:52",1
"20/04/25","13:40",0.0,19.9,24.1,1010.9,262.9,3.0,5.9,277.4,0.57,-1.2,15.9,"13:38:16",1
"20/04/25","13:50",0.0,20.0,23.6,1011.2,256.4,3.1,6.7,216.6,0.56,-1.4,15.7,"13:48:32",1
"20/04/25","14:00",0.0,19.9,23.5,1010.9,216.9,3.9,8.6,231.8,0.55,-1.5,15.8,"13:53:20",1
"20/04/25","14:10",0.0,20.7,22.5,1010.7,255.7,2.1,4.7,355.4,0.53,-1.4,15.7,"14:05:12",1
"20/04/25","14:20",0.0,20.7,22.2,1010.4,251.1,2.1,5.4,221.0,0.51,-1.6,16.0,"14:19:36",1
"20/04/25","14:30",0.0,20.4,25.1,1010.2,218.7,3.4,6.2,188.0,0.50,-0.2,16.0,"14:25:44",1
"20/04/25","14:40",0.0,21.2,27.6,1010.0,226.1,2.0,4.2,184.8,0.48,1.8,16.1,"14:34:16",1
"20/04/25","14:50",0.0,21.1,27.6,1010.0,254.4,2.5,4.8,312.7,0.46,1.7,16.2,"14:41:52",1
"20/04/25","15:00",0.0,20.9,27.6,1010.2,229.2,2.3,5.5,227.5,0.43,1.6,16.1,"14:52:00",1
"20/04/25","15:10",0.0,20.9,27.5,1010.0,268.3,2.6,6.3,342.1,0.41,1.5,16.3,"15:04:40",1
"20/04/25","15:20",0.0,20.9,25.7,1009.5,247.0,2.2,5.2,233.0,0.39,0.6,16.3,"15:10:02",1
"20/04/25","15:30",0.0,20.6,23.6,1009.7,246.4,3.0,5.5,208.8,0.37,-0.9,16.3,"15:23:36",1
"20/04/25","15:40",0.0,20.5,24.7,1009.7,273.8,2.7,5.1,291.8,0.34,-0.3,16.2,"15:33:36",1
"20/04/25","15:50",0.0,20.6,26.1,1009.7,267.4,2.3,5.0,237.0,0.31,0.5,16.3,"15:46:56",1
"20/04/25","16:00",0.0,20.4,24.9,1010.0,267.3,2.3,5.9,232.6,0.29,-0.3,16.3,"15:59:44",1
"20/04/25","16:10",0.0,20.2,26.5,1009.5,255.6,2.5,6.4,219.2,0.26,0.4,16.3,"16:09:28",1
"20/04/25","16:20",0.0,20.1,27.9,1009.7,267.6,2.6,6.0,237.1,0.23,1.0,16.0,"16:14:56",1
"20/04/25","16:30",0.0,19.8,30.2,1009.7,271.8,2.8,6.7,319.6,0.21,1.9,16.2,"16:20:16",1
"20/04/25","16:40",0.0,19.5,31.6,1009.5,251.9,2.7,5.1,226.6,0.18,2.2,16.0,"16:39:20",1
"20/04/25","16:50",0.0,19.3,32.5,1009.7,284.5,2.6,5.4,319.7,0.15,2.5,15.9,"16:47:36",1
"20/04/25","17:00",0.0,19.1,31.1,1009.7,266.2,2.8,7.7,330.7,0.13,1.7,15.9,"16:51:04",1
"20/04/25","17:10",0.0,18.9,30.9,1009.5,267.3,2.6,4.4,246.5,0.10,1.4,15.9,"17:02:40",1
"20/04/25","17:20",0.0,18.7,31.5,1010.0,271.5,2.6,4.4,225.4,0.08,1.5,15.7,"17:11:04",1
"20/04/25","17:30",0.0,18.2,33.8,1010.0,278.8,2.6,4.9,313.2,0.05,2.1,15.8,"17:22:08",1
"20/04/25","17:40",0.0,17.9,35.0,1010.2,291.4,2.0,3.9,328.2,0.04,2.3,15.6,"17:36:32",1
"20/04/25","17:50",0.0,17.5,36.9,1010.2,272.3,1.7,4.0,339.4,0.01,2.7,15.3,"17:44:56",1
"20/04/25","18:00",0.0,17.0,38.6,1010.0,320.5,2.2,4.1,311.0,0.00,2.9,15.4,"17:52:16",1
"20/04/25","18:10",0.0,16.7,39.0,1010.2,308.6,2.2,4.0,320.7,0.00,2.7,15.3,"18:04:00",1
"20/04/25","18:20",0.0,16.5,40.8,1010.4,325.9,1.6,3.9,6.9,0.00,3.2,15.2,"18:15:36",1
"20/04/25","18:30",0.0,16.1,42.6,1010.7,307.0,2.0,3.6,359.2,0.00,3.4,15.2,"18:26:24",1
"20/04/25","18:40",0.0,16.0,43.3,1010.9,292.7,1.8,4.7,201.2,0.00,3.6,15.0,"18:36:16",1
"20/04/25","18:50",0.0,15.7,44.6,1011.4,290.2,0.8,1.9,229.6,0.00,3.7,15.1,"18:40:08",1
"20/04/25","19:00",0.0,15.5,46.1,1010.9,298.4,1.3,2.4,308.7,0.00,4.0,15.1,"18:50:56",1
"20/04/25","19:10",0.0,15.1,48.0,1011.2,273.4,1.2,2.0,337.0,0.00,4.2,14.8,"19:00:40",1
"20/04/25","19:20",0.0,15.3,48.3,1011.4,290.5,1.6,4.1,290.4,0.00,4.5,14.8,"19:13:44",1
"20/04/25","19:30",0.0,15.1,49.1,1011.6,316.5,1.8,3.5,346.0,0.00,4.5,14.7,"19:25:52",1
"20/04/25","19:40",0.0,14.7,50.9,1011.6,308.4,1.8,2.7,316.7,0.00,4.7,14.7,"19:33:52",1
"20/04/25","19:50",0.0,14.8,51.4,1011.9,313.0,2.2,3.6,343.9,0.00,4.9,14.6,"19:45:04",1
"20/04/25","20:00",0.0,14.5,52.2,1012.1,315.6,1.8,3.3,298.7,0.00,4.9,14.3,"19:50:02",1
"20/04/25","20:10",0.0,14.7,51.7,1011.9,325.9,2.7,5.0,338.7,0.00,4.9,14.6,"20:01:52",1
"20/04/25","20:20",0.0,14.6,52.5,1011.9,337.9,1.1,2.2,325.7,0.00,5.0,14.2,"20:11:52",1
"20/04/25","20:30",0.0,14.0,54.8,1012.1,320.5,1.3,2.8,341.8,0.00,5.1,14.2,"20:25:52",1
"20/04/25","20:40",0.0,13.2,58.5,1012.1,329.0,1.8,3.1,313.6,0.00,5.3,14.2,"20:30:56",1
"20/04/25","20:50",0.0,12.7,60.4,1012.1,339.8,1.6,3.2,344.7,0.00,5.3,14.2,"20:46:16",1
"20/04/25","21:00",0.0,12.1,62.5,1011.9,306.9,1.3,3.2,336.7,0.00,5.2,14.1,"20:59:54",1
"20/04/25","21:10",0.0,11.8,64.8,1011.9,334.9,2.2,4.1,325.7,0.00,5.4,14.0,"21:00:24",1
"20/04/25","21:20",0.0,12.0,65.2,1011.9,329.6,1.7,3.1,308.2,0.00,5.7,14.1,"21:14:44",1
"20/04/25","21:30",0.0,11.6,66.2,1012.1,304.7,1.7,2.5,268.3,0.00,5.6,13.8,"21:21:08",1
"20/04/25","21:40",0.0,11.4,67.3,1012.3,334.7,2.5,3.3,332.8,0.00,5.6,13.7,"21:38:22",1
"20/04/25","21:50",0.0,11.1,68.6,1012.3,310.2,1.0,1.9,329.3,0.00,5.6,13.7,"21:40:40",1
"20/04/25","22:00",0.0,11.3,69.5,1012.3,317.5,1.6,2.4,321.9,0.00,6.0,13.5,"21:55:14",1
"20/04/25","22:10",0.0,11.9,69.8,1012.3,306.0,1.8,3.3,13.1,0.00,6.6,13.6,"22:03:36",1
"20/04/25","22:20",0.0,12.0,69.7,1012.3,333.3,1.0,1.9,316.1,0.00,6.7,13.5,"22:14:56",1
"20/04/25","22:30",0.0,12.3,69.7,1012.1,320.9,1.6,3.2,334.1,0.00,7.0,13.6,"22:25:12",1
"20/04/25","22:40",0.0,12.5,70.0,1012.1,349.8,1.8,3.4,331.7,0.00,7.2,13.5,"22:30:24",1
"20/04/25","22:50",0.0,12.6,70.2,1011.9,342.8,1.1,2.2,322.4,0.00,7.4,13.3,"22:47:20",1
"20/04/25","23:00",0.0,12.7,70.8,1011.6,14.2,1.3,2.1,335.4,0.00,7.6,13.2,"22:58:32",1
"20/04/25","23:10",0.0,12.8,71.0,1011.4,339.1,1.3,2.4,350.7,0.00,7.7,13.2,"23:06:12",1
"20/04/25","23:20",0.0,12.5,71.6,1011.6,329.8,1.6,2.7,341.8,0.00,7.6,13.2,"23:10:08",1
"20/04/25","23:30",0.0,12.1,72.5,1011.6,317.4,1.7,2.5,335.0,0.00,7.4,13.2,"23:21:20",1
"20/04/25","23:40",0.0,11.7,73.7,1011.6,326.9,2.0,3.2,313.8,0.00,7.2,13.2,"23:38:34",1
"20/04/25","23:50",0.0,11.3,75.5,1011.4,317.0,1.8,3.3,336.5,0.00,7.2,13.0,"23:48:12",1
"20/04/25","24:00",0.0,11.2,77.0,1011.4,324.0,1.7,2.8,355.7,0.00,7.4,13.1,"23:50:24",1
